This is the latest recevied weather packets stored in our database for station/object OH6GKW. If no packets are shown the sender has not sent any weather packets the latest 10 day(s).
| Time | Temp. | Humidity | Pressure | Rain* | Wind** | Luminosity | Snow |
|---|---|---|---|---|---|---|---|
| 1788609833 | 10° C | 98% | 996.1 hPa | 4.06 mm | - | 90 W/m² | - |
| 1788609522 | 10° C | 98% | 995.9 hPa | 4.06 mm | - | 84 W/m² | - |
| 1788609211 | 10° C | 98% | 995.9 hPa | 4.06 mm | - | 67 W/m² | - |
| 1788608926 | 10° C | 98% | 995.9 hPa | 4.06 mm | - | 95 W/m² | - |
| 1788608619 | 10° C | 98% | 995.8 hPa | 4.06 mm | - | 99 W/m² | - |
| 1788608314 | 10.56° C | 98% | 995.8 hPa | 4.06 mm | - | 69 W/m² | - |
| 1788608009 | 10.56° C | 98% | 995.8 hPa | 4.06 mm | - | 67 W/m² | - |
| 1788607733 | 10.56° C | 98% | 995.6 hPa | 4.06 mm | - | 58 W/m² | - |
| 1788607429 | 10.56° C | 98% | 995.6 hPa | 3.81 mm | - | 58 W/m² | - |
| 1788607124 | 10.56° C | 98% | 995.6 hPa | 3.81 mm | - | 81 W/m² | - |
| 1788606815 | 10.56° C | 98% | 995.4 hPa | 3.81 mm | - | 72 W/m² | - |
| 1788606511 | 10.56° C | 98% | 995.4 hPa | 3.81 mm | - | 72 W/m² | - |
| 1788606226 | 11.11° C | 98% | 995.4 hPa | 3.81 mm | - | 95 W/m² | - |
| 1788605915 | 11.11° C | 98% | 995.2 hPa | 3.81 mm | - | 83 W/m² | - |
| 1788605629 | 11.11° C | 97% | 995.2 hPa | 3.81 mm | - | 81 W/m² | - |
| 1788605320 | 11.11° C | 98% | 995.2 hPa | 3.81 mm | - | 107 W/m² | - |
| 1788605016 | 11.11° C | 98% | 994.9 hPa | 3.81 mm | - | 165 W/m² | - |
| 1788604733 | 11.11° C | 98% | 994.9 hPa | 3.81 mm | - | 187 W/m² | - |
| 1788604428 | 11.11° C | 98% | 994.9 hPa | 3.81 mm | - | 160 W/m² | - |
| 1788604118 | 11.11° C | 98% | 994.8 hPa | 3.81 mm | - | 225 W/m² | - |
| 1788603811 | 11.11° C | 98% | 994.8 hPa | 3.81 mm | - | 194 W/m² | - |
| 1788603527 | 11.11° C | 98% | 994.8 hPa | 3.81 mm | - | 188 W/m² | - |
| 1788603222 | 11.11° C | 98% | 994.7 hPa | 3.81 mm | - | 250 W/m² | - |
| 1788602913 | 11.11° C | 98% | 994.7 hPa | 3.81 mm | - | 178 W/m² | - |
| 1788602628 | 11.11° C | 98% | 994.7 hPa | 3.81 mm | - | 148 W/m² | - |
* Rain since midnight (hover to see other rain measurements)
** Current wind speed in m/s (hover to see current wind gust speed)